Location: C�mpuri de-Sus
(45.9500°N, 22.5500°E)
Time: 06:01:14
(UTC+00:00)

USA 229 DEB - Pass Details

Date: 24 October 2021
Orbit: 944 x 1268 km, 63.4° (Epoch: 25 November)

Event Time Altitude Azimuth Distance (km) Brightness Sun altitude
Rises 17:25:42 0° 218° (SW) 3,625 7.0 -21.0°
Reaches altitude 10° 17:28:11 10° 219° (SW) 2,704 6.2 -21.5°
Maximum altitude 17:34:31 85° 308° (NW) 1,020 3.5 -22.6°
Enters shadow 17:39:26 20° 37° (NE) 2,217 5.1 -23.4°
